Change the Weather History Date:

Tuesday, April 23, 2013

  Actual Average Record
Temperature  
Mean Temperature 39 °F -  
Max Temperature 41 °F 40 °F 46 °F (2003)
Min Temperature 37 °F 32 °F 26 °F (1999)
Degree Days  
Heating Degree Days 26    
Moisture  
Dew Point 35 °F    
Average Humidity 88    
Maximum Humidity 93    
Minimum Humidity 87    
Precipitation  
Precipitation 0.46 in - - ()
Sea Level Pressure  
Sea Level Pressure 30.25 in    
Wind  
Wind Speed 11 mph (East)    
Max Wind Speed 17 mph    
Max Gust Speed 25 mph    
Visibility 4 miles    
Events      
Averages and records for this station are not official NWS values.
T = Trace of Precipitation, MM = Missing Value Source: NWS Daily Summary

Daily Weather History Graph

Daily Weather History Graph

Search for Another Location

Airport or City:

Trip Planner

Search our weather history database for the weather conditions in past years. The results will help you decide how hot, cold, wet, or windy it might be!

Date:

Astronomy

Apr. 23, 2013 Rise Set
Actual Time 7:05 AM AKDT 9:58 PM AKDT
Civil Twilight 6:23 AM AKDT 10:41 PM AKDT
Nautical Twilight 5:26 AM AKDT 11:39 PM AKDT
Astronomical Twilight 4:10 AM AKDT 12:57 AM AKDT
Moon 7:50 PM AKDT (4/23) 6:04 AM AKDT (4/23)
Length of Visible Light 16h 18m
Length of Day
14h 52m
Waxing Gibbous, 95% of the Moon is Illuminated
Apr 23
Waxing Gibbous
Apr 25
Full
May 2
Last Quarter
May 9
New
May 17
First Quarter

Hourly Weather History & Observations

Time (AKDT) Temp. Windchill Dew Point Humidity Pressure Visibility Wind Dir Wind Speed Gust Speed Precip Events Conditions
12:16 AM 37.4 °F 28.5 °F 33.8 °F 87% 30.19 in 8.0 mi East 15.0 mph 21.9 mph N/A   Overcast
12:36 AM 37.4 °F 30.8 °F 33.8 °F 87% 30.19 in 10.0 mi East 9.2 mph 16.1 mph N/A   Overcast
12:56 AM 37.4 °F 27.8 °F 33.8 °F 87% 30.19 in 9.0 mi East 17.3 mph 25.3 mph N/A   Overcast
1:16 AM 37.4 °F 28.9 °F 33.8 °F 87% 30.19 in 7.0 mi East 13.8 mph 20.7 mph N/A   Overcast
1:36 AM 37.4 °F 28.5 °F 33.8 °F 87% 30.18 in 9.0 mi East 15.0 mph 21.9 mph N/A   Overcast
1:56 AM 37.4 °F 29.8 °F 33.8 °F 87% 30.18 in 9.0 mi East 11.5 mph - N/A   Overcast
2:16 AM 37.4 °F 28.5 °F 33.8 °F 87% 30.18 in 5.0 mi East 15.0 mph 21.9 mph N/A   Overcast
2:36 AM 37.4 °F 28.5 °F 33.8 °F 87% 30.18 in 6.0 mi East 15.0 mph 19.6 mph N/A   Overcast
2:56 AM 37.4 °F 30.8 °F 33.8 °F 87% 30.18 in 3.0 mi East 9.2 mph - 0.02 in   Overcast
3:16 AM 37.4 °F 27.8 °F 33.8 °F 87% 30.18 in 4.0 mi East 17.3 mph 21.9 mph 0.01 in   Overcast
3:36 AM 37.4 °F 29.8 °F 33.8 °F 87% 30.17 in 4.0 mi East 11.5 mph 17.3 mph 0.02 in   Overcast
3:56 AM 37.4 °F 29.8 °F 33.8 °F 87% 30.17 in 5.0 mi East 11.5 mph 16.1 mph 0.03 in   Overcast
4:16 AM 37.4 °F 29.3 °F 33.8 °F 87% 30.17 in 4.0 mi East 12.7 mph 17.3 mph 0.02 in   Overcast
4:36 AM 37.4 °F 30.8 °F 33.8 °F 87% 30.17 in 5.0 mi East 9.2 mph 21.9 mph 0.04 in   Overcast
4:56 AM 37.4 °F 30.3 °F 33.8 °F 87% 30.17 in 9.0 mi East 10.4 mph 17.3 mph 0.05 in   Overcast
5:16 AM 37.4 °F 30.3 °F 33.8 °F 87% 30.17 in 10.0 mi East 10.4 mph 19.6 mph 0.01 in   Overcast
5:36 AM 37.4 °F 28.5 °F 33.8 °F 87% 30.17 in 6.0 mi East 15.0 mph 20.7 mph 0.02 in   Overcast
5:56 AM 37.4 °F 29.8 °F 33.8 °F 87% 30.18 in 3.0 mi ENE 11.5 mph 19.6 mph 0.04 in   Overcast
6:16 AM 37.4 °F 28.5 °F 33.8 °F 87% 30.18 in 5.0 mi East 15.0 mph 20.7 mph 0.02 in   Overcast
6:36 AM 37.4 °F 29.8 °F 33.8 °F 87% 30.18 in 5.0 mi East 11.5 mph 17.3 mph 0.05 in   Overcast
6:56 AM 37.4 °F 28.5 °F 33.8 °F 87% 30.18 in 3.0 mi ENE 15.0 mph 21.9 mph 0.07 in   Overcast
7:16 AM 37.4 °F 28.9 °F 33.8 °F 87% 30.18 in 4.0 mi East 13.8 mph 19.6 mph 0.02 in   Overcast
7:36 AM 37.4 °F 29.3 °F 33.8 °F 87% 30.18 in 3.0 mi East 12.7 mph 17.3 mph 0.04 in   Overcast
7:56 AM 37.4 °F 30.3 °F 35.6 °F 93% 30.19 in 4.0 mi ESE 10.4 mph 16.1 mph 0.06 in   Overcast
8:16 AM 37.4 °F 30.8 °F 33.8 °F 87% 30.20 in 2.0 mi East 9.2 mph - 0.03 in   Overcast
8:36 AM 37.4 °F 32.8 °F 33.8 °F 87% 30.21 in 2.0 mi East 5.8 mph - 0.06 in   Overcast
8:56 AM 37.4 °F 31.4 °F 33.8 °F 87% 30.21 in 1.5 mi ENE 8.1 mph - 0.08 in   Overcast
9:16 AM 37.4 °F 32.8 °F 35.6 °F 93% 30.21 in 1.5 mi East 5.8 mph - 0.02 in   Overcast
9:36 AM 37.4 °F 32.1 °F 33.8 °F 87% 30.22 in 1.8 mi ENE 6.9 mph - 0.04 in   Overcast
10:16 AM 37.4 °F 33.8 °F 35.6 °F 93% 30.22 in 1.8 mi East 4.6 mph - N/A   Overcast
10:36 AM 37.4 °F 32.1 °F 35.6 °F 93% 30.23 in 1.5 mi East 6.9 mph - N/A   Overcast
10:56 AM 39.2 °F 34.2 °F 35.6 °F 87% 30.23 in 1.5 mi East 6.9 mph - N/A   Overcast
11:16 AM 39.2 °F 33.6 °F 35.6 °F 87% 30.24 in 2.5 mi East 8.1 mph - N/A   Overcast
11:36 AM 39.2 °F 32.5 °F 35.6 °F 87% 30.24 in 3.0 mi East 10.4 mph - N/A   Overcast
11:56 AM 39.2 °F 32.5 °F 35.6 °F 87% 30.25 in 4.0 mi East 10.4 mph - 0.02 in   Overcast
12:16 PM 39.2 °F 35.0 °F 35.6 °F 87% 30.25 in 3.0 mi East 5.8 mph - 0.01 in   Overcast
12:36 PM 39.2 °F 32.5 °F 37.4 °F 93% 30.26 in 3.0 mi ENE 10.4 mph - 0.01 in   Overcast
12:56 PM 39.2 °F 34.2 °F 35.6 °F 87% 30.27 in 3.0 mi East 6.9 mph - 0.02 in   Overcast
1:16 PM 39.2 °F 35.0 °F 35.6 °F 87% 30.28 in 2.5 mi ESE 5.8 mph - N/A   Overcast
1:36 PM 39.2 °F 35.0 °F 35.6 °F 87% 30.28 in 3.0 mi SE 5.8 mph - 0.01 in   Overcast
1:56 PM 39.2 °F 33.0 °F 37.4 °F 93% 30.28 in 2.5 mi ENE 9.2 mph - 0.01 in   Overcast
2:16 PM 39.2 °F 34.2 °F 35.6 °F 87% 30.28 in 3.0 mi East 6.9 mph - 0.01 in   Overcast
2:36 PM 39.2 °F 35.0 °F 37.4 °F 93% 30.29 in 1.8 mi East 5.8 mph - 0.01 in   Overcast
2:56 PM 39.2 °F 33.6 °F 37.4 °F 93% 30.28 in 4.0 mi ENE 8.1 mph - 0.02 in   Overcast
3:16 PM 41.0 °F 37.1 °F 37.4 °F 87% 30.29 in 3.0 mi East 5.8 mph - N/A   Overcast
3:36 PM 39.2 °F 35.0 °F 37.4 °F 93% 30.29 in 2.5 mi East 5.8 mph - N/A   Overcast
3:56 PM 39.2 °F 32.0 °F 37.4 °F 93% 30.29 in 3.0 mi ENE 11.5 mph - N/A   Overcast
4:16 PM 39.2 °F 33.6 °F 35.6 °F 87% 30.30 in 4.0 mi ESE 8.1 mph - N/A   Overcast
4:36 PM 39.2 °F 33.0 °F 35.6 °F 87% 30.30 in 4.0 mi East 9.2 mph - N/A   Overcast
4:56 PM 39.2 °F 32.0 °F 35.6 °F 87% 30.31 in 2.5 mi ENE 11.5 mph - N/A   Overcast
5:16 PM 39.2 °F 32.0 °F 37.4 °F 93% 30.31 in 4.0 mi ENE 11.5 mph - N/A   Overcast
5:36 PM 39.2 °F 31.2 °F 35.6 °F 87% 30.31 in 2.5 mi ENE 13.8 mph - N/A   Overcast
5:56 PM 39.2 °F 31.2 °F 35.6 °F 87% 30.31 in 3.0 mi ENE 13.8 mph - N/A   Overcast
6:16 PM 39.2 °F 32.5 °F 35.6 °F 87% 30.31 in 2.5 mi NE 10.4 mph - N/A   Overcast
6:36 PM 39.2 °F 32.5 °F 35.6 °F 87% 30.31 in 3.0 mi ENE 10.4 mph - N/A   Overcast
6:56 PM 39.2 °F 32.0 °F 35.6 °F 87% 30.32 in 2.5 mi ENE 11.5 mph - N/A   Overcast
7:16 PM 39.2 °F 33.0 °F 35.6 °F 87% 30.33 in 3.0 mi ENE 9.2 mph - N/A   Overcast
7:36 PM 39.2 °F 33.6 °F 35.6 °F 87% 30.32 in 2.5 mi ENE 8.1 mph - N/A   Overcast
7:56 PM 39.2 °F 33.0 °F 35.6 °F 87% 30.32 in 2.0 mi NE 9.2 mph - N/A   Overcast
8:16 PM 39.2 °F 31.6 °F 35.6 °F 87% 30.33 in 3.0 mi ENE 12.7 mph - N/A   Overcast
8:36 PM 39.2 °F 33.6 °F 35.6 °F 87% 30.33 in 5.0 mi East 8.1 mph - N/A   Overcast
8:56 PM 39.2 °F 35.0 °F 35.6 °F 87% 30.33 in 5.0 mi ENE 5.8 mph - N/A   Overcast
9:16 PM 39.2 °F 37.0 °F 35.6 °F 87% 30.34 in 8.0 mi East 3.5 mph - N/A   Overcast
9:36 PM 39.2 °F 37.0 °F 35.6 °F 87% 30.34 in 7.0 mi ENE 3.5 mph - N/A   Overcast
9:56 PM 39.2 °F 37.0 °F 35.6 °F 87% 30.35 in 8.0 mi NNW 3.5 mph - N/A   Overcast
10:16 PM 39.2 °F 35.0 °F 35.6 °F 87% 30.35 in 5.0 mi NNE 5.8 mph - N/A   Overcast
10:36 PM 37.4 °F 33.8 °F 35.6 °F 93% 30.36 in 5.0 mi NE 4.6 mph - N/A   Overcast
10:56 PM 39.2 °F 34.2 °F 35.6 °F 87% 30.36 in 7.0 mi ESE 6.9 mph - N/A   Overcast
11:16 PM 39.2 °F 35.0 °F 35.6 °F 87% 30.36 in 10.0 mi East 5.8 mph - N/A   Overcast
11:36 PM 39.2 °F 33.6 °F 35.6 °F 87% 30.35 in 10.0 mi ENE 8.1 mph - N/A   Overcast
11:56 PM 39.2 °F 33.6 °F 35.6 °F 87% 30.36 in 10.0 mi East 8.1 mph - N/A   Overcast